Погода в Тоцком Втором

Россия / Оренбургская область     52°32′39″N   52°49′31″E
темп.,
°C
ветер,
м/с
пор.,
м/с
влажн.,
%
обл.,
%
осадки,
мм/ч
давл.,
гПа
погр.,
м
8 мая, сб
сб823:00+15ююз2352100 0.0 101758
02:00+15юв1156100 0.0 101711
05:00+13з2263100 0.0 101744
08:00+14в346699 0.0 1017138
11:00+18всв214859 0.1 1017602
14:00+19ююв1240100 0.0 10172185
17:00+20вюв234265 0.1 10161631
20:00+17вюв33595 0.0 101656
9 мая, вс
вс923:00+14вюв336522 0.0 101632
02:00+12юв336832 0.0 101639
05:00+12юв366729 0.0 101687
08:00+15ююв25635 0.0 1016181
11:00+20ююв56435 0.0 10161006
14:00+23ю56365 0.0 10152297
17:00+24ю3534100 0.0 10152455
20:00+21юв2249100 0.0 101421
10 мая, пн
пн1023:00+18юв345351 0.0 101564
02:00+15юв3360100 0.0 101624
05:00+16вюв355457 0.0 1017100
08:00+17юв395992 0.0 1018260
11:00+22ююв464291 0.0 1019772
14:00+24юв4433100 0.0 10192615
17:00+25вюв343496 0.0 10192463
20:00+21в3451100 0.0 102059
11 мая, вт
вт1123:00+18вюв3356100 0.0 102129
02:00+17юв1253100 0.0 102213
05:00+16св2255100 0.0 102314
08:00+17всв1158100 0.0 102436
11:00+19св2358100 0.0 1026358
14:00+22всв2347100 0.0 10251152
17:00+23св3344100 0.0 10252000
20:00+20св486359 0.0 1025263
12 мая, ср
ср1223:00+16св51174100 0.0 1027353
02:00+13всв511565 0.0 1027278
05:00+11всв410582 0.0 1028234
08:00+13всв59560 0.0 1028306
11:00+17всв56425 0.0 1027796
14:00+21св553323 0.0 10271246
17:00+21св56325 0.0 10261358
20:00+18св365013 0.0 1026129